Meteo Giornale » Osservazioni meteo Sud Africa » Durban King Shaka International Airport
ore: 22:58 - Osservazioni Meteo Durban King Shaka International Airport
Lat. 29° 36' S Lon. 31° 8' E Alt. 109 metri s.l.m.
18 °C
Nebbia
Temp. 24 Ore
15 °C
26 °C
Nord
3.7 Km/h
Dew point 18 °C
Umidità 100 %
Visibilità 0.45 Km
Il sole sorge alle ore 06:10
Il sole tramonta alle ore 17:40
| Data e Ora | Cielo e Fenomeni | T °C | DP °C | Um. % | Pres. hPa | Vis. km | Vento km/h | |
|---|---|---|---|---|---|---|---|---|
| Oggi h: 22:58 | Nebbia | 18 | 18 | 100 | 1018 | 0.45 | N 3.7 | |
| Oggi h: 22:00 | Sereno | 20 | 19 | 93 | 1018 | 7 | S 7.4 | |
| Oggi h: 21:00 | Sereno | 19 | 18 | 93 | 1018 | 7 | N 0 | |
| Oggi h: 20:00 | Sereno | 19 | 19 | 100 | 1018 | 6 | N 1.8 | |
| Oggi h: 19:00 | Sereno | 20 | 19 | 93 | 1018 | 10 | N 1.8 | |
| Oggi h: 18:00 | Sereno | 21 | 19 | 88 | 1017 | 10 | E 11.1 | |
| Oggi h: 17:00 | Sereno | 23 | 19 | 78 | 1017 | 10 | E/NE 11.1 | |
| Oggi h: 16:00 | Sereno | 25 | 19 | 69 | 1017 | 10 | E/NE 9.3 | |
| Oggi h: 15:00 | Sereno | 25 | 19 | 69 | 1017 | 10 | E 11.1 | |
| Oggi h: 14:00 | Sereno | 26 | 19 | 65 | 1018 | 10 | E 13 | |
| Oggi h: 13:00 | Sereno | 24 | 19 | 73 | 1018 | 10 | E 11.1 | |
| Oggi h: 12:00 | Sereno | 24 | 20 | 78 | 1019 | 10 | E 13 | |
| Oggi h: 11:00 | Sereno | 24 | 19 | 73 | 1020 | 10 | E 11.1 | |
| Oggi h: 10:00 | Sereno | 23 | 18 | 73 | 1021 | 10 | NE 7.4 | |
| Oggi h: 09:00 | Sereno | 22 | 18 | 78 | 1021 | 10 | N/NE 9.3 | |
| Oggi h: 08:28 | Sereno | 21 | 18 | 82 | 1021 | 10 | E/NE 9.3 | |
| Oggi h: 08:00 | Sereno | 19 | 18 | 93 | 1021 | 10 | NE 7.4 | |
| Oggi h: 07:54 | Sereno | 19 | 18 | 93 | 1021 | 10 | NE 9.3 | |
| Oggi h: 07:00 | Sereno | 17 | 16 | 93 | 1021 | 8 | N/NE 11.1 | |
| Oggi h: 06:00 | Sereno | 16 | 16 | 100 | 1021 | 8 | N/NE 9.3 | |
| Oggi h: 05:00 | Sereno | 16 | 16 | 100 | 1021 | 7 | N 0 | |
| Oggi h: 04:55 | Sereno | 16 | 16 | 100 | 1021 | 7 | N 0 | |
| Oggi h: 04:32 | Foschia | 15 | 14 | 93 | 1021 | 5 | N 1.8 | |
| Oggi h: 04:00 | Nuvoloso | 16 | 16 | 100 | 1021 | 6 | N 1.8 | |
| Oggi h: 03:00 | Molto Nuvoloso | 17 | 16 | 93 | 1022 | 10 | N 1.8 | |
| Oggi h: 02:00 | Molto Nuvoloso | 18 | 17 | 93 | 1022 | 10 | N 0 | |
| Oggi h: 01:00 | Molto Nuvoloso | 17 | 17 | 100 | 1023 | 10 | N 1.8 | |
| Oggi h: 00:00 | Poco Nuvoloso | 16 | 15 | 93 | 1023 | 8 | N 0 | |



